Theta_e
295 296 295 295 295 295 295 294 295 295 295 296 296 297 296 296 297 297 294 296 295 295 296 295 295 296 295 294 295 296 296 296 295 295 295 296 296 296 295 295 295 294 294 293 293 293 293 293 292 292 291 288 288 287 286 285 285 285 285 285 284 284 283 282 281 278 277 280 281 280 280 280 279 280 279 279 278 281 282 280 279 279 280 280 280
295 295 295 295 294 295 294 293 294 294 294 294 295 296 295 294 294 292 294 293 294 294 294 294 294 293 294 294 294 294 295 297 295 294 294 295 295 296 295 294 294 294 293 293 292 292 292 292 292 291 289 288 287 286 286 285 285 285 284 284 284 283 283 282 280 279 278 278 279 280 279 280 278 280 279 278 278 279 281 280 279 279 279 279 278
296 295 294 294 293 292 292 292 291 291 292 292 292 293 292 291 291 292 292 291 292 293 293 293 293 293 293 293 294 293 294 294 294 293 294 295 295 295 295 294 294 294 293 293 293 292 291 291 291 291 289 288 287 287 286 285 285 285 284 285 284 284 283 283 281 279 278 278 279 278 278 279 279 279 279 279 279 279 279 279 279 279 279 279 278
293 293 293 293 292 290 291 290 290 290 291 292 292 291 291 291 290 291 292 291 292 291 292 293 293 293 293 293 293 293 293 292 292 293 294 294 295 295 294 294 294 294 294 294 293 291 291 290 291 290 288 287 288 287 286 286 285 285 284 284 284 283 282 281 282 280 279 277 278 278 279 278 279 279 279 279 278 278 278 279 279 279 279 279 279
292 292 291 291 290 290 290 289 290 290 291 291 291 290 289 289 289 291 290 291 291 291 290 291 292 292 293 293 293 293 293 293 293 293 293 293 294 295 294 294 294 294 294 294 292 291 290 290 291 290 288 287 287 287 286 285 285 285 284 284 283 283 282 281 280 280 279 278 278 278 278 278 278 278 279 277 277 277 277 277 278 278 278 279 279
291 292 291 290 291 290 290 289 290 290 290 290 290 289 288 289 290 289 290 291 291 291 291 291 292 292 292 293 293 293 293 293 293 293 293 293 293 293 293 293 293 293 293 293 293 291 291 290 291 289 288 287 288 287 287 285 285 285 284 283 282 282 281 280 280 280 280 279 278 277 278 277 277 277 278 278 277 276 276 277 277 277 277 277 278
290 291 291 290 291 291 291 291 291 290 290 289 287 288 288 288 289 290 289 290 291 291 290 291 291 292 292 292 292 292 292 293 293 293 292 292 292 292 292 292 292 292 293 293 292 292 291 291 290 289 288 288 288 287 286 285 285 284 284 282 282 281 281 280 280 280 279 278 278 278 277 278 278 276 277 278 278 278 276 276 275 277 276 276 276
290 290 290 290 291 292 292 291 289 289 288 287 288 288 288 288 288 288 288 289 290 291 291 290 290 290 292 292 292 292 292 292 292 292 292 292 292 291 292 292 292 291 291 291 291 291 290 290 290 289 288 288 288 288 286 285 284 283 283 283 282 282 281 280 279 280 279 278 278 277 278 277 277 277 277 277 276 276 277 277 275 276 276 276 277
290 290 289 290 292 292 291 288 288 288 287 287 287 288 288 288 287 287 288 289 290 290 290 289 289 289 290 291 291 291 291 291 292 292 291 291 291 291 291 291 291 291 291 291 290 290 289 289 289 289 287 287 287 287 286 286 284 283 283 282 282 282 281 280 280 279 279 279 278 278 277 277 277 276 275 275 275 277 277 277 276 277 276 275 276
289 289 290 291 292 291 290 288 288 286 287 288 288 288 287 287 287 287 288 288 289 289 288 288 289 289 289 290 290 291 291 291 290 291 291 291 291 291 291 291 290 290 289 289 288 287 287 287 287 286 285 285 285 286 286 286 286 285 283 282 282 282 281 280 280 280 279 278 278 277 277 276 276 277 276 277 278 278 276 276 275 276 275 275 275
288 289 290 291 291 290 289 288 287 288 288 287 287 287 287 287 287 287 287 287 288 288 287 288 288 289 289 289 289 290 290 290 290 292 292 293 291 291 290 290 289 289 288 288 287 286 286 286 286 285 285 284 285 286 286 286 286 287 286 284 284 283 281 280 280 280 279 279 279 278 278 277 277 278 278 278 277 277 276 276 275 276 274 273 273
288 289 289 289 289 289 288 288 288 288 287 287 287 287 286 286 286 287 287 287 287 286 286 288 288 288 288 288 289 289 290 289 291 291 292 292 291 290 289 289 288 288 288 288 288 287 286 285 285 285 284 285 285 284 285 286 286 286 286 285 285 286 286 283 281 280 280 279 278 278 279 279 278 278 278 277 277 277 277 276 276 275 275 274 275
287 288 288 288 288 288 288 288 288 288 288 287 287 286 286 286 286 286 286 287 285 286 287 287 287 287 287 287 288 288 289 290 291 291 291 292 292 290 288 288 287 287 287 287 287 286 285 284 284 283 284 284 284 284 283 284 286 286 286 285 285 286 288 287 286 283 282 281 279 279 279 280 278 278 279 278 279 276 276 275 276 275 276 275 275
286 287 287 287 287 287 287 287 287 288 287 286 285 286 285 286 287 287 286 285 285 286 286 286 287 286 287 287 287 287 287 288 291 291 291 291 292 291 288 287 287 287 287 286 286 286 285 284 283 282 282 283 283 283 283 283 284 284 283 283 283 284 286 286 285 285 284 282 281 280 281 281 280 280 280 280 278 277 276 275 276 275 275 276 276
286 286 287 287 286 286 286 287 287 287 286 286 285 285 286 286 286 286 286 286 285 285 286 285 286 286 286 286 286 286 287 289 290 291 291 291 292 291 288 287 287 286 286 286 286 285 285 284 284 283 282 282 282 283 282 283 283 282 282 281 282 282 283 283 282 282 282 282 282 282 281 281 281 280 280 280 279 279 278 277 277 277 275 273 272
286 286 287 287 287 286 286 287 287 286 286 285 285 286 286 286 286 285 285 284 284 284 284 285 285 285 286 286 285 286 286 289 290 290 291 291 292 289 288 286 286 285 285 285 285 285 284 284 283 282 282 281 283 285 284 283 282 281 281 281 281 282 282 284 284 284 282 282 281 281 281 281 282 280 280 280 280 278 276 274 274 273 272 271 272
286 286 286 286 287 287 286 286 287 286 286 285 285 286 286 285 285 284 284 284 284 284 284 284 285 285 285 285 284 285 285 287 289 289 290 291 290 288 287 286 286 285 285 284 284 284 284 283 283 282 282 281 283 285 286 284 282 281 281 280 280 280 280 282 285 285 284 284 284 284 284 284 285 285 284 284 280 277 274 273 273 273 272 270 269
286 286 286 286 286 286 286 285 286 286 286 286 286 286 286 285 285 284 284 284 283 284 283 283 283 283 284 284 284 284 284 285 288 289 289 290 289 287 286 286 285 284 284 284 283 283 283 283 283 282 282 281 284 285 286 284 281 281 280 280 279 279 279 280 282 283 284 284 284 284 284 285 285 285 285 285 284 280 275 274 274 273 273 272 271
287 287 287 286 286 285 285 284 285 286 286 287 286 286 286 286 285 282 283 283 284 283 282 282 282 282 282 283 283 284 284 284 287 288 289 289 288 287 286 285 284 283 283 282 282 282 282 282 282 283 282 282 284 286 286 284 281 281 281 280 279 279 279 279 280 280 281 281 281 282 282 284 283 282 283 285 284 281 278 277 276 274 273 272 273
286 285 285 285 285 285 284 284 284 285 286 286 286 286 285 283 282 282 282 282 282 281 281 281 281 282 281 281 282 283 283 282 284 287 288 288 289 287 286 285 283 283 282 282 280 280 280 280 282 284 284 284 285 286 286 286 282 282 281 280 280 279 281 279 280 280 280 280 280 280 280 281 281 281 281 282 282 281 278 278 277 276 275 274 274
285 285 285 285 284 284 284 283 284 284 284 285 285 284 282 283 282 280 281 280 279 280 279 280 280 281 280 280 281 282 282 282 283 287 288 288 289 288 286 285 284 283 282 281 280 280 279 280 280 283 285 285 285 286 287 286 285 282 282 281 282 284 282 279 279 281 279 279 279 279 279 280 280 280 280 281 281 282 281 279 278 278 277 276 275
285 284 284 284 284 284 283 283 282 283 283 282 282 283 281 280 281 280 278 278 278 279 279 279 279 279 279 279 280 280 282 283 282 285 287 288 288 289 286 285 284 283 282 281 280 280 280 280 280 282 284 285 285 286 287 286 286 283 283 285 286 286 281 280 279 279 278 278 278 278 278 278 278 279 279 280 280 281 281 280 280 278 279 278 277
284 284 283 283 283 283 282 281 282 281 281 280 280 282 279 277 277 277 277 277 278 278 278 278 278 278 278 279 279 279 280 281 284 283 285 287 288 288 288 286 286 284 282 280 280 280 280 280 281 282 284 285 285 286 287 287 286 283 285 286 286 285 282 279 279 278 278 278 278 277 277 278 277 277 278 278 279 280 280 281 280 280 279 279 279
282 282 282 282 283 282 282 281 280 279 279 279 278 280 279 277 277 277 277 278 278 278 278 277 277 278 279 279 279 278 279 280 282 283 284 286 287 288 289 289 287 284 282 281 281 281 280 280 281 283 284 285 285 286 287 286 285 285 286 286 286 284 280 279 279 278 278 277 277 277 277 277 277 277 277 278 278 279 279 280 279 279 279 278 278
282 282 282 282 282 282 281 280 279 277 277 276 278 280 278 275 277 277 276 277 278 278 279 278 278 278 279 279 279 279 279 279 279 281 283 284 286 287 288 289 287 286 282 282 281 281 282 282 283 283 284 285 285 286 286 286 286 286 286 286 285 283 280 279 279 278 277 276 277 277 277 277 277 278 278 278 278 277 277 277 277 277 277 277 276
282 282 282 282 282 281 280 281 279 277 277 276 278 280 280 279 278 278 277 277 278 278 279 278 278 278 278 279 279 279 278 277 278 279 282 283 284 286 287 288 286 286 284 282 282 282 283 283 283 283 284 284 284 284 284 285 286 285 285 285 284 283 281 280 279 278 277 277 277 277 278 278 277 277 277 277 276 276 275 275 275 274 274 274 273
281 282 282 283 283 281 280 281 281 280 275 276 277 278 278 278 278 279 278 278 278 278 279 278 278 278 278 279 279 278 277 277 277 278 280 281 282 283 284 286 286 285 284 282 282 282 282 282 282 283 283 284 284 284 284 285 285 285 284 284 284 283 282 281 280 278 278 278 278 278 279 278 277 277 276 276 275 275 275 275 275 274 274 274 273
282 282 282 282 282 282 281 280 280 280 280 278 278 278 278 278 279 279 279 279 278 278 279 279 279 279 279 279 279 277 277 277 277 277 279 280 281 282 283 284 285 284 283 282 281 281 281 282 283 282 282 282 283 283 283 284 285 285 284 284 284 284 283 283 282 281 281 280 280 279 278 277 276 276 276 276 275 275 276 275 275 274 274 273 271
281 281 281 281 282 281 280 280 280 280 280 279 278 279 280 279 279 280 281 281 281 281 280 280 280 280 280 279 279 278 278 278 279 281 280 282 281 282 282 283 284 284 284 284 281 281 281 280 280 280 280 280 280 281 282 282 283 285 284 284 283 283 283 282 281 281 281 280 279 279 278 278 277 277 276 276 276 276 276 275 275 275 274 274 272
280 280 281 281 281 281 281 281 279 279 279 279 279 279 278 281 281 280 281 282 283 284 284 282 281 280 279 280 280 280 280 280 283 283 282 283 283 284 284 285 286 284 284 285 282 279 279 279 279 279 279 279 279 280 281 282 282 283 284 284 283 283 282 282 282 282 282 281 280 280 279 278 278 277 277 276 276 276 276 276 274 275 273 272 271
279 279 280 280 281 281 281 281 281 280 279 279 278 279 279 280 283 284 283 282 283 283 284 284 285 284 281 279 280 283 284 283 283 283 283 283 283 284 284 285 286 285 285 283 280 279 279 278 279 279 279 279 279 280 281 281 282 282 283 283 283 283 282 282 282 282 282 281 281 280 280 279 278 277 276 276 275 275 274 275 274 273 273 272 271
277 278 279 279 280 280 281 280 280 280 280 279 277 278 278 279 280 283 284 284 284 284 284 284 284 284 284 283 279 277 282 283 283 283 283 283 283 283 284 285 286 286 285 284 280 279 279 278 278 279 279 279 279 280 281 281 282 282 283 282 282 283 282 282 282 282 282 281 281 280 279 279 278 277 277 276 275 274 273 272 272 272 271 271 271
275 276 277 278 279 279 280 280 280 279 279 279 279 277 277 278 278 279 279 283 284 284 284 284 284 284 284 284 284 282 281 282 283 283 283 283 283 283 284 285 286 286 285 282 279 279 279 279 279 279 279 279 280 280 281 281 282 282 282 282 281 281 282 282 283 282 281 281 281 280 279 279 278 277 276 275 274 273 273 272 272 271 271 270 269
273 274 276 277 277 278 279 279 279 279 280 279 279 279 279 278 278 278 278 278 277 280 283 284 284 284 284 284 284 284 283 283 283 283 283 283 283 283 283 283 285 286 284 281 280 279 279 279 279 279 279 280 280 280 280 281 282 282 282 282 281 281 281 281 281 280 280 281 280 279 279 279 278 277 275 275 274 274 272 272 271 270 269 269 269
271 273 275 276 277 277 278 278 279 279 279 279 279 279 279 278 278 278 278 278 278 278 278 279 282 284 282 283 284 284 283 283 283 283 283 283 283 283 283 281 281 282 283 282 281 280 279 279 279 279 279 279 280 280 280 281 281 282 281 281 281 281 280 280 280 280 280 280 280 279 278 278 277 276 275 274 273 272 272 271 270 270 269 268 268
269 270 272 273 275 276 277 278 279 280 280 280 281 280 280 279 279 279 279 278 278 278 278 278 277 281 283 283 283 284 284 283 283 283 283 283 283 283 279 279 279 281 281 282 281 280 280 279 279 279 279 279 280 280 281 281 281 282 282 281 280 280 279 279 279 279 279 279 278 278 277 276 276 275 275 274 273 273 272 271 270 269 269 268 268
267 269 270 272 273 275 276 278 279 280 281 281 281 280 280 280 279 279 279 279 278 278 278 277 274 275 280 281 282 283 284 283 283 283 283 283 283 282 280 279 279 280 280 281 281 281 280 280 280 279 279 278 278 278 278 279 280 280 280 280 280 279 278 278 278 277 277 277 277 277 276 276 275 275 274 273 272 272 271 271 270 269 268 268 268
267 268 270 272 273 275 276 277 278 279 280 280 280 280 280 280 279 279 279 278 278 278 278 278 278 277 277 278 281 281 282 283 283 282 283 283 282 281 280 279 279 279 279 281 281 281 280 280 280 279 278 277 276 275 276 276 276 276 276 276 276 277 277 277 277 276 275 275 275 275 275 275 275 274 273 273 272 271 271 270 269 269 268 268 268
267 269 270 271 273 274 276 277 278 279 280 280 280 280 279 279 279 279 278 278 278 278 278 278 278 278 278 279 280 281 281 280 280 279 280 280 281 281 280 279 279 279 279 280 280 280 281 280 279 279 277 277 276 274 275 274 274 274 275 275 274 274 276 275 274 274 273 274 274 274 274 274 274 274 273 273 272 271 271 270 269 269 268 267 267
266 267 269 271 271 273 275 277 278 279 279 279 279 280 279 279 279 279 278 278 278 278 278 278 278 278 279 280 279 280 279 279 279 279 280 280 280 280 280 279 279 278 278 279 279 279 279 278 277 277 276 276 276 275 274 274 273 273 273 274 273 273 273 273 273 273 272 272 272 272 273 273 273 273 273 273 272 272 271 270 269 269 269 268 268
266 267 268 270 271 272 273 275 277 278 279 279 280 280 279 279 279 279 279 278 278 278 278 278 278 279 279 279 281 281 280 279 280 280 280 280 280 280 280 280 279 279 278 278 278 277 278 277 276 276 276 275 275 274 274 274 273 273 273 273 273 273 272 272 272 272 271 271 271 271 272 272 273 272 272 272 273 272 271 271 270 269 269 268 268
265 265 266 267 269 270 272 273 275 277 277 278 279 279 279 279 279 279 278 278 277 277 277 277 278 278 278 280 281 282 280 279 279 279 279 279 279 279 278 279 279 279 278 277 277 276 276 276 276 276 275 275 275 274 274 274 273 273 273 272 272 272 272 272 272 272 271 271 271 272 272 273 272 272 272 273 271 271 270 270 270 269 269 268 267
263 264 265 266 267 269 270 272 274 275 276 277 278 276 277 278 278 278 278 277 277 277 277 276 276 275 276 280 280 281 280 278 276 277 277 277 277 276 276 277 277 277 277 277 277 277 276 276 276 276 276 276 276 275 275 275 274 274 273 273 273 273 273 273 273 273 273 273 273 273 273 273 273 272 272 271 271 271 270 270 269 269 268 268 267
262 263 264 265 266 267 269 271 273 274 276 275 276 277 277 277 278 277 277 277 276 276 276 276 275 274 274 277 278 279 278 277 276 277 276 276 276 276 275 274 274 274 275 275 275 276 276 276 275 275 274 275 275 276 276 276 276 275 275 274 273 273 274 274 274 274 274 274 274 273 273 273 272 273 271 271 271 270 270 269 268 268 267 267 266
262 262 263 264 266 267 270 272 273 274 274 275 276 276 275 276 276 276 276 276 275 274 274 273 272 272 273 275 276 277 276 275 274 274 275 275 274 272 271 272 272 271 270 269 270 273 275 275 273 272 270 269 269 269 269 268 271 273 275 276 275 274 274 275 275 274 274 274 273 272 271 271 271 270 270 269 269 269 268 268 267 265 266 265 265
262 262 263 264 266 268 270 271 272 273 274 274 275 275 275 275 275 275 274 274 273 273 272 271 271 271 272 274 274 273 273 273 272 272 271 271 269 268 268 268 268 268 268 267 268 269 270 272 271 271 269 267 267 266 266 266 265 265 267 269 270 270 269 268 268 269 270 271 271 270 270 269 269 268 267 268 267 267 267 267 266 266 266 265 264
262 263 264 266 267 269 270 270 271 271 272 273 273 273 273 273 273 272 271 271 271 270 270 270 270 270 271 272 271 270 269 269 269 268 267 266 266 266 265 265 266 265 265 265 266 266 267 267 268 267 266 266 265 264 263 264 264 264 264 264 265 265 265 265 266 267 267 267 267 267 267 267 266 266 265 266 265 265 265 265 265 264 264 264 263
263 264 265 266 267 268 269 270 270 269 270 271 271 271 270 269 269 269 269 268 268 268 268 267 267 268 267 266 266 266 265 265 264 263 263 263 264 264 265 264 263 262 262 261 261 262 263 263 263 264 264 263 263 262 262 262 261 262 262 262 262 262 261 262 263 263 263 264 265 265 265 265 265 265 264 264 264 264 263 263 262 262 262 262 261
263 263 263 264 264 265 266 266 267 268 268 268 267 267 266 267 266 266 266 266 266 266 266 266 265 265 264 263 263 263 263 263 263 262 262 261 261 261 261 260 260 261 260 260 260 260 260 260 260 260 261 260 261 260 260 260 260 260 260 260 262 262 261 260 260 259 259 260 260 260 261 261 261 260 260 261 261 261 261 261 261 260 260 259 259
261 261 262 262 262 263 264 264 265 265 265 265 265 265 264 264 264 264 264 264 264 263 263 263 263 263 263 263 263 263 263 262 261 261 260 260 260 260 260 260 260 260 260 259 259 259 259 259 259 258 258 258 258 258 258 258 258 258 257 260 263 262 261 260 259 259 258 258 259 259 259 259 258 258 258 259 259 259 259 259 259 259 259 258 258
260 260 260 260 260 261 261 262 262 262 263 263 263 263 262 262 262 262 262 262 262 261 262 262 262 262 261 262 262 262 261 261 261 260 260 260 260 259 259 259 258 258 258 258 258 258 258 258 258 258 258 257 257 257 257 256 255 257 260 262 262 262 261 260 259 259 258 257 257 258 258 258 258 257 257 257 258 258 258 258 257 258 258 258 257
Wind_Speed
6 7 5 7 6 8 7 7 7 7 7 7 9 8 7 8 8 8 5 8 7 8 8 8 7 8 7 7 8 8 8 8 6 6 6 7 8 8 8 9 11 10 9 10 10 11 12 13 13 13 9 10 10 10 9 10 8 8 7 6 7 6 7 7 8 2 2 2 4 7 8 11 9 10 10 8 6 6 6 6 6 5 5 5 4
7 7 7 7 8 7 7 6 7 6 7 8 9 8 7 7 7 5 8 7 7 8 8 7 7 7 7 7 7 7 8 9 7 6 8 8 9 8 8 9 10 10 9 11 10 10 11 13 13 12 10 13 10 10 10 9 9 10 9 10 9 10 8 8 5 6 6 1 3 4 7 11 10 10 12 11 8 6 7 6 5 6 5 5 5
6 6 6 7 8 7 6 7 6 7 8 8 9 9 8 6 6 8 8 6 7 8 8 8 7 7 7 7 7 7 8 8 7 7 9 9 10 9 9 10 11 12 12 13 13 11 11 12 13 11 8 10 11 11 10 11 11 12 12 10 12 12 10 8 6 5 9 6 6 8 8 9 10 11 11 7 7 8 8 7 6 5 5 5 5
5 5 6 7 6 6 8 7 7 8 9 9 10 9 7 7 6 8 7 6 8 7 7 7 7 8 8 8 8 8 8 7 7 8 10 10 10 10 10 10 11 12 13 13 12 11 13 13 12 12 11 12 11 10 10 10 10 11 11 10 10 9 7 6 6 6 5 8 7 9 8 9 6 5 8 6 7 7 7 5 5 5 5 5 5
5 5 5 7 6 7 8 7 8 9 11 9 10 7 6 6 6 8 6 8 7 7 7 6 8 8 9 9 8 9 9 8 9 9 9 9 10 10 10 10 11 12 12 12 12 12 13 14 13 11 11 12 11 11 10 13 11 10 11 9 8 7 6 5 5 5 8 9 7 4 4 4 2 4 8 10 6 5 4 5 5 6 5 5 4
4 5 6 7 8 9 9 8 10 11 10 9 9 6 6 7 7 7 7 8 7 8 8 8 8 9 8 9 9 9 8 9 10 10 10 10 10 9 9 10 10 11 11 11 11 11 13 14 13 12 12 14 14 13 12 14 11 11 10 9 9 9 10 7 5 6 8 8 10 7 6 8 5 4 8 9 9 7 3 3 3 4 5 5 5
4 6 7 7 8 10 9 10 10 9 9 8 5 6 7 7 7 9 7 8 9 9 8 8 8 9 9 8 9 9 8 9 9 10 9 9 10 10 10 10 10 9 10 11 11 11 12 12 12 12 14 14 15 14 14 13 12 13 13 12 11 10 10 9 7 8 8 9 6 7 9 7 7 7 5 6 5 6 8 5 4 6 5 6 6
5 6 6 7 9 12 11 8 7 7 6 5 6 7 7 7 7 6 5 9 10 9 9 9 8 8 9 9 9 8 8 9 9 9 9 9 9 9 9 10 10 10 10 10 10 10 11 12 12 12 14 14 14 13 13 13 11 11 10 10 9 9 9 8 7 7 7 7 9 9 7 9 6 3 5 6 5 4 7 8 10 8 7 6 7
6 6 6 9 12 11 7 5 5 5 5 6 7 7 7 7 6 6 7 8 8 8 7 8 8 9 8 9 8 7 8 10 8 9 9 9 9 9 10 10 10 10 10 10 9 10 10 10 11 11 13 14 16 13 12 12 12 11 9 10 10 10 9 7 6 6 6 7 6 5 7 7 7 8 8 9 13 14 9 7 7 5 5 5 5
6 6 7 10 10 7 6 5 5 4 6 8 8 7 7 7 7 7 8 9 8 8 7 7 9 10 9 9 8 8 9 8 10 14 12 10 9 9 9 10 10 9 9 9 8 9 10 10 10 14 15 15 15 15 16 16 17 15 15 14 13 11 12 12 11 10 10 9 8 9 9 8 10 11 11 12 7 4 7 8 8 5 4 3 3
5 6 9 9 7 6 5 5 4 6 7 7 7 7 7 6 7 8 9 8 9 9 7 9 11 10 10 10 10 9 9 9 14 12 15 17 11 10 10 10 9 9 9 9 10 10 9 8 7 9 10 11 12 16 17 18 19 17 16 18 17 16 13 12 10 8 9 10 9 8 10 11 11 10 10 8 7 9 7 7 7 6 6 5 6
5 7 8 7 6 6 5 5 6 7 6 7 6 6 6 6 8 8 8 9 9 6 9 12 10 9 9 9 10 10 10 11 15 15 16 18 15 10 9 9 9 9 9 10 10 9 9 9 8 7 8 10 10 11 14 18 19 19 20 20 19 17 20 18 14 10 10 10 10 11 10 10 11 9 9 8 9 7 7 7 7 8 7 6 4
5 7 6 5 6 6 6 6 6 6 7 7 6 6 7 7 9 9 11 9 6 9 11 9 10 9 9 10 11 10 9 11 15 17 16 17 18 15 9 9 8 9 10 10 10 9 8 8 9 8 8 12 10 9 10 12 15 16 16 18 18 17 10 13 18 17 15 12 12 10 11 10 9 10 11 10 8 9 8 7 7 6 6 6 6
4 6 6 6 6 5 5 5 7 8 7 6 5 6 7 10 9 8 7 6 8 9 8 11 10 10 10 11 11 9 10 11 17 17 17 18 18 16 10 10 9 9 10 10 9 9 9 10 10 10 8 9 9 11 10 10 10 10 10 11 10 12 15 14 13 9 11 12 12 11 11 8 11 10 9 9 11 11 9 8 7 7 7 8 4
6 6 7 7 5 5 5 5 7 7 6 5 6 7 9 8 7 7 8 9 9 10 10 10 11 10 10 9 9 10 10 13 15 17 17 18 18 16 10 9 9 9 9 9 9 10 10 10 10 10 9 9 11 12 12 11 11 10 10 11 10 9 10 9 9 8 9 6 9 9 8 9 6 5 8 9 11 9 9 10 10 8 4 3 3
7 6 7 7 7 6 5 6 7 6 5 5 7 8 8 8 9 7 7 7 7 7 7 8 9 10 10 10 10 11 9 13 15 16 17 16 17 11 9 9 9 9 9 9 9 10 10 10 10 10 11 11 12 17 14 11 12 13 12 11 9 8 7 5 7 7 8 8 7 7 7 7 7 8 9 8 7 5 6 6 5 5 6 5 7
6 6 7 7 7 7 6 6 7 7 6 6 8 8 8 9 8 5 7 8 8 9 9 9 9 9 10 9 11 11 9 11 15 17 16 17 13 8 8 8 9 10 10 9 10 10 10 11 11 10 11 11 14 19 18 13 12 14 13 12 10 9 7 5 9 11 10 9 9 9 10 12 12 13 15 16 10 9 7 7 6 7 7 6 5
6 6 7 7 7 6 6 5 7 7 6 8 9 8 7 6 7 6 9 9 9 10 8 8 8 8 10 11 11 11 10 10 15 16 17 17 13 9 8 8 9 9 8 7 7 7 9 13 11 10 10 9 14 19 19 17 13 14 14 13 12 10 7 5 5 6 11 11 11 11 12 13 14 15 15 16 16 12 10 11 8 8 8 8 8
8 8 9 8 7 7 6 6 6 7 7 8 8 9 8 8 6 5 8 7 9 6 7 8 8 8 9 10 11 12 10 9 14 16 16 16 13 8 8 7 9 9 7 8 6 6 6 8 14 11 9 10 18 21 23 20 14 14 13 13 13 13 10 10 9 9 8 7 6 7 7 10 9 8 9 17 18 12 9 7 7 9 9 7 7
8 7 8 8 7 7 6 6 6 6 8 8 7 8 6 5 6 6 7 7 7 7 7 8 9 9 8 9 9 10 10 9 9 15 17 17 18 10 8 8 10 9 8 8 7 6 7 7 10 16 18 19 20 22 22 22 14 11 11 12 13 14 9 10 9 10 9 9 8 7 7 6 6 6 6 8 10 10 9 8 8 8 8 8 8
8 8 7 8 7 7 6 5 8 7 6 7 7 6 5 6 6 6 7 6 6 7 7 8 8 9 7 8 8 9 9 9 10 13 15 17 18 16 9 10 9 8 7 8 8 9 8 9 8 14 17 17 18 20 19 19 14 11 12 12 11 10 11 10 10 9 9 8 7 7 6 6 6 6 7 7 8 8 9 9 8 9 8 8 8
8 8 9 9 8 7 7 7 6 7 6 5 6 8 5 5 6 6 6 6 7 9 7 7 8 8 7 8 8 9 8 12 8 12 14 17 18 20 11 10 9 8 9 8 7 8 8 7 7 11 18 16 17 19 22 21 19 10 10 11 11 11 12 9 10 9 7 7 7 7 7 7 7 8 8 8 8 8 8 8 9 9 8 8 8
8 9 9 10 10 9 8 7 8 5 6 5 6 8 5 4 6 5 6 6 8 9 8 7 7 9 8 7 7 7 7 8 12 10 13 15 17 19 17 9 13 10 9 10 10 9 7 7 7 12 19 19 21 22 23 26 19 13 16 16 13 14 11 8 9 9 8 8 8 9 8 8 8 9 9 9 8 8 7 7 7 8 8 7 7
7 9 9 9 10 9 8 7 6 5 6 6 5 7 6 5 5 6 6 7 7 8 8 7 7 9 9 8 7 7 6 7 9 13 11 15 16 18 19 20 20 12 10 9 7 7 7 7 7 15 18 19 21 23 23 23 14 16 16 18 17 14 9 9 9 9 9 9 9 9 9 9 8 8 10 9 7 8 7 7 6 6 7 5 5
9 10 10 9 9 9 8 7 7 6 6 5 6 7 6 4 7 6 6 7 7 9 9 6 8 9 8 10 8 7 7 6 6 9 13 13 17 19 18 18 18 15 10 8 7 6 7 10 13 18 18 19 21 21 19 20 20 18 19 18 15 9 8 9 9 9 9 10 10 10 9 10 11 11 6 5 5 4 4 3 3 3 2 2 2
11 11 10 9 9 8 9 9 6 6 6 5 6 7 7 6 7 7 6 8 8 9 9 7 8 8 9 9 8 7 6 6 7 6 7 10 11 14 16 16 16 17 16 9 10 12 14 15 18 19 19 17 14 12 12 13 19 20 19 18 11 9 9 9 8 9 11 9 10 10 10 8 7 5 5 6 6 8 7 6 5 4 4 3 3
11 11 11 11 10 8 8 9 9 7 5 5 6 6 6 6 7 8 8 8 8 8 9 8 8 8 10 9 8 6 7 7 7 6 6 7 7 8 10 11 15 16 13 9 9 9 12 13 11 15 13 18 18 15 14 14 13 15 13 13 12 10 10 10 11 11 11 10 10 9 6 5 5 5 6 7 7 5 6 6 6 6 5 5 5
11 12 13 10 10 9 9 11 10 9 8 6 7 7 7 7 8 10 10 9 9 10 9 9 10 10 9 8 7 7 8 7 7 7 8 7 8 8 9 9 10 10 10 8 8 8 8 9 12 10 10 10 12 10 11 11 12 12 12 12 11 10 10 11 10 9 9 8 6 5 4 6 7 7 6 6 6 6 6 7 7 6 6 5 4
12 12 11 9 10 9 8 8 8 9 9 8 8 8 9 8 10 11 10 7 9 11 10 10 10 8 8 9 8 9 9 9 10 10 11 12 12 10 10 10 9 9 11 12 8 6 6 7 7 8 9 10 10 11 11 11 11 12 12 10 10 10 9 9 9 8 8 7 8 8 7 7 6 6 6 6 7 7 6 6 6 6 5 6 7
12 12 11 10 10 10 9 9 8 8 8 9 10 10 10 13 11 10 11 9 15 14 9 11 8 6 9 9 8 11 11 9 3 10 13 14 15 13 11 10 10 8 10 16 11 8 8 8 9 9 10 10 11 11 11 11 12 11 11 9 10 10 10 9 9 9 8 8 8 7 7 7 7 7 7 7 6 6 7 8 7 6 6 6 6
10 11 10 10 11 11 10 10 10 8 8 9 8 10 12 8 15 19 17 15 10 12 17 17 13 10 9 9 8 12 12 3 7 10 13 15 16 16 14 13 14 15 16 12 10 10 9 10 10 10 10 10 10 11 11 11 11 11 10 9 8 9 9 9 9 8 8 8 7 7 7 8 8 7 8 7 7 6 6 6 6 6 7 7 6
10 12 11 11 12 11 10 10 10 10 10 8 7 9 9 12 13 11 17 17 17 17 16 17 17 15 15 13 9 6 9 10 9 11 13 15 16 17 17 16 16 17 19 18 11 10 10 10 10 10 10 10 10 9 10 11 11 11 10 10 10 9 10 10 9 9 8 8 8 8 8 8 8 8 8 7 7 7 7 6 6 6 5 5 6
11 13 13 12 12 12 11 10 10 9 10 10 10 7 9 10 12 14 6 13 17 17 18 17 18 18 17 16 16 11 9 9 12 13 14 15 16 17 17 18 18 19 20 14 10 10 10 10 10 9 9 10 9 9 9 9 10 10 10 10 10 9 8 8 9 8 8 9 8 7 7 8 7 7 7 7 7 7 7 7 6 6 6 6 6
12 11 11 12 13 12 12 11 10 10 9 9 9 10 9 9 11 11 13 11 7 10 15 19 19 18 19 18 16 16 15 14 14 13 14 14 16 16 16 13 17 20 18 10 10 10 9 9 9 9 9 8 8 8 8 9 9 9 9 8 7 6 6 6 7 7 7 8 8 7 8 7 7 8 7 7 7 7 7 7 7 7 6 7 7
11 13 17 13 10 11 11 10 10 10 10 10 10 10 10 10 9 11 11 12 12 12 9 9 13 18 13 13 17 18 17 16 15 15 15 15 15 15 15 9 10 11 14 11 9 9 9 10 9 8 7 7 7 8 8 9 9 9 9 8 7 6 6 7 7 7 7 7 7 7 7 8 8 7 8 8 7 7 7 7 7 7 7 6 6
12 11 11 12 10 10 10 10 10 10 11 11 10 10 10 10 10 10 10 11 11 12 11 8 6 9 18 15 14 16 17 17 17 17 17 18 17 17 10 10 9 10 10 10 10 10 9 9 8 8 7 7 6 7 7 8 8 9 8 8 8 8 8 8 7 8 8 8 8 8 7 7 7 7 7 7 10 10 8 8 7 7 7 7 6
11 11 11 10 10 10 11 12 11 11 11 12 10 10 10 10 9 10 10 11 11 11 11 9 4 5 8 9 12 14 16 15 15 15 16 17 20 15 10 10 10 10 10 9 9 9 9 8 8 7 7 7 6 5 5 6 6 7 6 7 7 7 7 7 7 6 7 7 7 7 8 8 7 8 8 8 7 7 7 8 7 7 7 8 7
11 11 11 11 12 12 12 11 12 13 12 11 10 10 10 10 10 10 10 11 11 11 11 9 7 8 9 9 9 8 10 13 15 13 13 14 12 9 9 8 9 9 9 8 7 7 8 7 7 7 6 6 6 5 5 5 5 5 6 5 6 6 8 8 8 7 7 6 7 7 7 7 7 7 7 8 8 8 8 8 8 7 7 8 8
11 15 19 20 16 12 11 12 11 11 11 10 10 10 10 10 10 9 10 10 10 10 9 9 9 9 9 5 6 7 8 9 10 10 9 9 9 9 9 9 8 7 7 7 5 5 6 6 5 6 6 7 7 6 6 6 5 5 5 5 5 5 7 6 6 6 6 7 6 6 6 7 6 7 7 8 8 8 8 8 8 8 8 8 8
12 10 12 17 12 13 12 12 11 11 11 10 11 10 10 10 10 10 10 10 11 10 9 10 10 10 8 6 8 8 10 10 9 8 8 8 9 9 8 8 8 8 8 7 6 5 5 5 6 6 6 6 7 7 6 6 6 6 5 6 6 7 7 6 7 7 8 7 6 6 7 7 6 6 7 8 8 8 8 8 8 8 8 8 8
12 12 13 13 14 14 13 13 11 10 10 11 11 10 11 10 10 9 9 10 10 10 10 9 9 8 7 9 13 13 10 9 9 9 8 9 8 9 9 9 8 8 7 7 6 5 5 5 5 5 5 5 5 6 6 6 6 6 6 6 6 6 6 6 6 6 6 6 6 6 6 6 6 7 8 7 7 6 6 6 7 7 7 7 7
12 13 13 12 13 12 12 13 11 11 11 11 12 11 10 10 10 9 10 10 9 9 9 9 8 6 6 12 13 16 11 7 7 6 7 6 6 5 4 4 5 6 6 6 6 6 5 5 5 5 6 5 6 5 5 5 6 6 6 6 6 6 6 6 6 6 6 6 6 6 6 7 7 7 8 7 6 6 6 6 6 7 7 8 7
13 13 13 13 13 12 13 13 12 11 10 10 10 10 10 11 10 9 9 9 9 8 8 8 7 5 5 9 12 15 7 4 3 5 5 5 5 4 4 3 3 4 5 5 5 6 5 5 5 5 5 6 6 6 7 6 6 6 5 6 6 6 6 6 6 6 6 6 6 7 7 7 7 6 6 6 6 6 7 7 8 7 7 8 8
12 12 13 13 14 13 13 12 11 11 11 11 12 11 10 9 10 9 9 9 8 7 8 7 5 5 5 5 7 7 4 4 4 4 5 4 5 4 4 3 4 4 4 4 4 5 5 5 4 4 3 4 4 5 6 6 7 7 6 6 6 6 6 6 6 7 7 7 7 7 8 8 8 7 7 6 7 8 8 7 7 7 7 6 6
10 12 12 12 12 12 12 10 10 11 11 10 10 10 8 9 9 9 8 8 5 5 5 4 4 5 4 5 5 6 5 5 4 4 5 5 5 5 4 4 4 4 4 4 3 4 4 5 5 5 5 3 3 3 3 2 1 3 5 7 7 7 7 8 7 6 7 7 6 6 6 5 5 5 5 5 6 6 6 6 6 6 6 6 6
10 10 12 12 13 12 11 11 10 11 11 10 10 10 9 8 8 7 5 5 4 5 4 4 4 5 5 5 4 2 4 5 5 5 4 5 5 5 4 4 4 5 4 4 4 4 4 5 5 5 5 5 4 4 3 3 3 3 3 2 2 3 2 3 4 4 4 5 5 5 6 5 5 5 5 5 5 5 6 6 6 6 6 6 6
11 9 10 10 12 12 12 11 11 11 11 11 9 9 8 6 6 5 3 3 4 3 4 4 4 4 3 3 3 4 3 5 5 5 5 6 6 5 4 4 5 5 5 5 5 5 5 5 5 5 5 5 5 5 4 4 4 4 4 3 4 4 3 3 4 4 4 4 4 4 4 4 4 3 3 4 4 4 5 5 5 6 5 5 5
10 10 11 11 11 10 11 10 11 10 9 9 8 6 4 3 2 1 1 1 3 2 3 3 3 3 3 4 4 5 4 5 5 5 5 5 4 4 5 5 6 6 8 9 8 7 6 6 6 6 6 6 6 5 5 5 5 4 4 4 4 5 5 5 4 4 3 4 3 3 3 4 3 4 4 4 4 4 4 4 3 3 3 4 3
9 9 9 9 9 9 8 8 7 7 6 6 6 5 3 3 2 2 2 2 2 3 3 4 4 3 5 5 4 4 5 5 6 6 6 5 5 6 6 6 8 9 9 9 8 8 8 8 7 7 7 7 6 6 5 5 5 5 5 4 5 9 8 7 5 5 5 5 5 5 4 3 3 3 4 3 4 3 3 3 4 4 4 4 4
8 8 8 8 8 8 8 7 7 6 6 5 5 4 4 3 4 3 3 4 4 4 5 4 4 4 5 5 5 5 7 7 6 6 5 5 5 4 6 8 9 8 7 7 6 6 6 7 8 7 7 7 6 5 5 4 4 4 4 3 7 9 9 9 8 7 6 4 5 4 5 4 4 4 4 4 4 4 4 4 4 3 4 4 4
8 8 7 7 8 8 8 8 7 7 7 7 6 6 6 5 5 5 5 5 5 4 4 4 4 5 5 5 5 6 6 6 6 5 4 4 4 4 5 5 8 9 9 9 8 7 7 6 6 7 6 6 6 6 5 4 4 3 4 6 8 8 8 6 5 6 6 5 4 5 5 5 5 5 4 4 3 4 4 4 3 4 4 4 4
Wind_Direction
207 220 206 223 221 223 218 212 220 217 224 220 225 226 221 216 217 216 209 216 202 211 213 212 210 210 214 216 222 226 229 233 225 223 221 221 218 214 208 204 209 214 210 212 211 208 210 212 212 212 195 196 201 194 193 190 186 192 190 193 205 205 195 196 210 134 354 10 166 171 160 156 176 189 189 189 185 192 181 187 184 191 193 195 201
214 214 211 215 218 222 222 220 218 218 225 226 229 228 220 215 213 210 217 218 200 211 212 210 210 206 209 217 220 224 228 231 225 220 223 224 222 213 211 207 211 215 209 215 211 212 212 215 216 209 195 199 191 193 190 184 188 187 193 193 201 204 201 187 190 152 167 81 129 131 158 174 178 184 189 186 187 180 188 189 191 194 196 190 199
213 210 213 217 223 219 219 222 213 221 225 230 233 229 223 219 205 213 219 216 211 209 208 207 209 209 209 214 216 220 224 227 224 217 226 225 223 219 214 209 210 211 211 214 211 208 211 215 217 206 193 198 196 198 188 191 189 192 198 196 201 205 199 192 151 158 159 176 156 159 174 185 190 184 191 186 176 180 186 192 189 198 200 198 208
222 215 222 228 224 217 223 221 214 221 225 229 232 229 223 221 208 219 220 212 214 214 209 208 208 209 214 213 213 218 221 221 222 220 225 224 225 223 217 216 216 217 216 216 211 204 210 212 216 203 194 201 202 195 193 193 192 200 204 206 208 200 194 195 201 138 160 148 186 178 180 175 187 165 174 160 168 181 194 190 187 197 201 202 209
227 234 230 237 230 227 230 216 220 224 228 228 232 227 224 223 217 222 217 221 219 210 217 209 211 209 212 213 214 217 218 217 221 224 224 224 225 224 220 220 220 220 220 217 212 207 208 212 211 199 191 201 203 202 195 196 198 198 205 200 194 180 181 192 193 159 156 170 153 157 152 169 121 147 169 163 163 173 178 195 192 200 209 208 208
229 235 234 236 239 235 237 225 224 226 228 232 231 224 221 219 221 225 215 222 219 216 212 210 210 213 214 214 214 218 215 217 222 225 224 222 225 226 225 222 224 225 223 221 216 209 209 212 210 198 197 201 205 203 197 199 195 198 198 188 185 181 179 177 165 172 162 158 154 145 172 175 166 174 181 175 167 172 171 189 196 208 200 215 220
228 232 234 235 245 243 237 232 231 232 227 226 223 223 225 224 220 225 213 219 220 219 218 216 216 213 217 213 216 215 215 217 223 225 225 223 222 223 224 223 224 225 226 223 219 215 214 214 210 200 201 205 206 201 198 197 194 200 193 187 183 172 177 176 167 166 166 153 164 170 162 182 181 169 164 173 177 185 177 181 217 213 210 206 228
237 237 236 242 243 247 240 234 232 235 236 231 224 221 221 221 225 230 217 224 224 220 217 217 221 215 218 214 217 212 215 222 225 225 224 222 221 226 224 224 224 225 227 224 221 219 217 215 212 207 207 208 208 205 194 196 191 191 183 174 174 176 180 169 172 168 153 159 167 171 183 164 155 67 108 141 169 235 211 192 204 203 205 202 217
239 237 236 240 244 246 253 240 230 230 224 226 227 228 226 223 217 216 223 233 230 229 222 217 222 226 225 218 214 208 216 223 222 220 220 220 220 224 224 224 222 224 224 224 222 219 219 218 216 214 212 214 212 206 199 190 176 178 179 173 178 180 170 169 167 159 165 167 154 141 153 167 177 154 161 180 197 205 186 183 207 190 164 185 227
241 245 241 245 252 257 256 250 235 222 222 227 229 227 222 218 216 220 223 226 233 229 226 221 223 226 224 222 218 214 220 222 222 219 214 214 215 221 223 226 224 224 222 222 223 222 223 218 218 215 212 210 206 198 193 189 190 185 179 179 175 174 174 174 179 176 171 162 168 165 174 184 184 188 187 202 192 106 152 181 196 183 138 195 267
243 244 251 253 262 269 263 256 233 231 229 231 230 226 222 215 217 223 226 221 224 227 218 224 227 225 225 222 219 220 223 222 219 216 218 217 215 218 219 222 221 222 221 219 220 216 220 221 221 215 211 207 205 201 196 195 194 194 187 183 180 177 169 168 174 172 171 178 173 175 183 186 195 191 198 184 180 190 179 179 181 167 185 182 224
252 255 255 268 272 270 263 257 242 243 233 236 229 226 220 217 222 224 227 226 226 209 219 227 229 227 229 228 227 224 225 218 218 218 217 220 217 218 219 221 217 219 218 220 221 217 216 214 213 207 205 205 202 203 202 200 198 196 188 187 189 185 176 170 170 177 185 173 175 188 181 193 190 183 192 178 189 180 185 170 179 183 186 197 194
261 264 266 265 266 260 256 250 250 248 241 236 226 217 216 221 224 223 226 224 215 213 226 228 231 229 226 228 230 228 230 213 217 219 219 218 219 216 219 217 215 218 216 217 218 216 211 209 210 206 206 204 204 203 202 203 203 197 187 188 191 186 185 190 190 188 179 172 171 181 192 187 176 200 193 186 165 181 176 180 185 185 194 201 204
275 284 292 276 266 262 258 252 251 248 243 234 224 223 220 227 227 225 229 220 218 226 226 227 229 227 225 227 232 231 230 218 217 218 218 218 218 215 218 213 218 218 217 215 214 212 207 206 207 209 204 199 197 194 193 197 193 188 182 190 194 194 188 180 176 171 179 174 172 186 201 169 193 191 179 164 171 186 179 189 177 187 199 210 198
304 293 291 288 289 280 271 258 256 255 245 234 226 229 228 236 231 226 222 221 219 223 224 227 229 228 229 229 233 234 231 221 221 221 221 220 219 217 219 215 218 221 219 216 212 210 207 207 206 205 197 195 198 193 192 189 184 183 180 184 190 188 182 174 173 169 174 180 184 191 170 184 183 155 166 178 186 183 179 181 184 188 160 62 48
302 307 302 302 301 292 279 276 270 265 253 239 233 237 233 230 232 223 224 230 230 232 236 227 232 228 227 226 230 238 234 222 223 224 224 222 215 215 216 215 219 220 220 215 212 210 207 202 203 203 199 200 198 192 191 180 182 179 180 184 184 184 189 184 167 156 167 169 165 158 167 176 167 163 168 173 165 131 101 74 87 103 128 157 208
309 305 297 295 295 292 286 279 279 275 264 256 250 247 242 238 237 213 226 227 226 226 229 225 226 227 228 225 228 237 234 223 222 223 223 221 213 214 212 217 221 222 223 217 215 212 208 203 202 203 199 201 193 191 187 171 182 183 182 181 182 181 180 160 159 155 154 150 144 151 161 173 175 171 173 173 161 144 127 132 168 153 149 192 222
316 309 299 295 289 286 279 271 274 275 270 259 260 260 252 252 240 208 221 227 229 228 224 232 228 223 224 226 221 230 233 222 223 225 222 219 210 210 210 215 223 223 229 221 219 219 215 208 202 202 202 201 191 190 186 180 187 185 182 177 176 182 181 161 140 151 155 154 158 162 169 176 179 175 177 177 168 155 159 186 173 156 191 193 206
323 318 310 303 294 285 277 268 260 264 264 260 257 261 254 246 243 216 231 231 238 226 221 229 234 227 226 227 223 225 232 224 221 226 223 219 211 209 209 215 222 224 218 223 217 218 214 211 206 202 197 191 191 194 191 188 189 185 178 175 183 189 185 168 164 155 157 154 167 164 171 175 176 176 183 184 177 174 184 176 150 179 191 196 196
306 300 297 299 297 292 280 272 264 258 263 266 261 255 259 261 245 230 237 231 243 232 226 228 233 234 223 227 228 223 227 226 215 220 220 217 210 203 206 209 220 218 214 215 210 213 208 208 208 205 200 198 196 196 194 187 186 183 177 182 186 195 171 173 178 171 170 173 172 173 172 167 170 176 188 194 191 183 189 187 181 184 192 193 193
308 303 301 299 298 292 286 270 274 267 253 264 269 269 253 249 249 237 241 240 242 245 234 235 237 243 227 228 227 228 221 223 222 214 217 215 211 204 209 213 214 208 212 210 210 208 207 206 208 206 201 194 194 198 195 188 188 185 188 191 192 186 159 171 173 161 171 167 166 170 170 175 185 189 194 200 202 196 190 196 193 193 191 193 192
311 312 309 306 301 295 288 283 266 271 273 265 274 267 259 248 247 239 238 233 237 243 241 239 244 249 241 232 229 231 225 223 223 223 219 217 215 209 210 215 199 203 211 216 212 216 212 203 204 198 196 191 192 194 194 189 188 188 195 197 195 161 158 168 166 169 170 169 169 178 181 184 193 199 202 205 206 203 195 192 195 198 204 206 199
308 306 304 302 300 296 290 282 282 278 277 263 258 268 261 247 252 242 236 234 235 242 240 238 242 251 250 242 237 233 226 227 222 222 221 217 214 215 216 205 202 206 208 214 210 211 203 200 196 188 192 191 191 194 196 193 187 192 190 194 185 158 152 151 161 167 173 177 176 189 192 193 197 203 205 209 206 197 197 196 194 195 205 212 216
304 303 299 296 296 295 290 286 277 271 269 269 261 263 266 243 243 232 236 236 240 241 241 229 236 245 247 248 238 232 230 226 225 221 221 220 219 218 216 215 211 204 208 219 212 206 198 195 183 184 192 193 195 198 199 197 193 188 192 195 178 160 153 157 164 173 174 178 185 191 198 200 201 203 211 206 192 190 191 193 193 192 198 207 211
314 306 301 297 295 292 292 284 279 270 261 243 258 258 261 237 247 238 219 237 239 245 246 220 230 239 243 245 241 231 226 226 228 225 222 221 222 221 218 210 204 194 203 215 202 201 189 182 179 187 194 198 199 201 203 202 196 192 199 196 181 172 169 164 167 167 177 182 190 195 201 201 202 208 188 169 164 138 165 192 177 183 175 178 194
309 303 301 297 294 295 297 293 276 264 265 242 241 245 243 238 237 243 220 232 232 239 249 235 238 238 243 244 239 232 219 220 225 223 222 224 227 226 223 216 206 202 205 201 188 178 180 180 183 190 196 200 197 200 201 204 200 196 198 194 190 186 178 172 171 168 178 181 191 196 202 198 196 176 147 151 166 191 180 178 169 195 169 166 163
307 305 305 306 303 299 295 294 300 290 265 259 249 249 241 236 236 242 231 232 234 238 240 239 243 241 244 246 241 231 223 219 222 217 216 218 219 218 220 223 213 208 207 197 189 189 183 182 186 192 196 199 201 202 206 206 203 202 204 200 198 193 186 182 177 176 182 188 194 199 192 165 123 134 174 176 190 183 168 167 174 193 174 183 190
311 307 306 306 301 304 300 294 292 291 282 256 258 257 238 228 234 237 229 222 226 236 234 235 235 233 240 244 241 238 235 227 218 210 214 209 211 208 210 208 204 201 200 192 187 185 185 190 192 196 198 202 206 208 208 209 208 206 205 202 201 197 192 182 177 184 187 185 180 157 131 144 171 181 170 183 191 179 165 171 180 185 179 166 167
312 306 305 306 301 301 291 287 285 285 286 277 251 241 244 233 233 248 240 220 217 229 234 238 235 226 229 230 225 239 239 235 226 209 211 203 203 202 204 206 200 200 192 184 175 173 184 188 194 196 200 203 205 208 209 209 213 211 206 200 196 193 189 185 185 183 178 173 177 175 180 172 181 174 176 183 193 183 168 176 190 184 180 181 205
314 310 310 308 303 307 304 295 284 276 273 276 281 276 238 229 237 239 258 226 226 234 224 241 236 214 228 232 211 223 234 243 240 220 222 222 224 220 216 205 196 185 183 177 165 178 190 197 200 200 202 203 206 208 207 208 210 208 208 195 190 191 192 189 187 184 180 182 177 177 181 176 181 178 183 190 187 180 178 179 184 176 178 194 204
308 304 307 305 303 303 300 298 296 285 275 274 273 278 292 259 229 238 244 247 236 233 239 244 245 224 213 241 231 234 250 225 196 209 212 217 220 222 219 208 196 189 180 166 177 188 193 199 204 203 205 205 210 210 207 208 207 205 204 198 195 189 188 187 186 181 179 174 178 183 181 180 184 179 183 188 182 174 169 185 175 182 191 187 201
311 306 305 301 302 298 292 290 291 291 287 277 266 276 277 288 288 227 228 244 241 238 238 239 239 234 224 224 230 238 236 232 215 206 209 213 217 217 217 211 202 190 186 172 183 196 198 204 206 208 204 209 212 210 211 211 207 204 200 198 198 192 190 191 180 176 175 175 181 183 180 182 184 180 183 182 176 171 173 177 180 185 190 194 205
306 301 299 300 299 296 293 291 287 285 285 286 283 266 267 273 277 294 253 222 238 238 236 236 236 235 229 225 219 213 209 211 216 210 209 214 217 218 216 215 209 203 188 188 196 197 202 207 211 210 206 212 209 206 209 207 205 204 203 204 201 195 193 186 175 178 176 182 180 183 178 180 179 178 180 177 175 179 175 181 183 184 187 199 211
297 291 295 298 297 293 292 290 288 286 279 275 274 274 269 261 270 270 283 289 272 257 248 241 236 231 231 223 214 214 211 208 209 208 209 212 217 218 215 215 212 207 201 199 197 206 202 209 212 213 213 210 207 201 201 202 201 202 203 206 200 188 184 169 176 179 175 185 186 181 181 185 178 175 178 177 182 174 177 186 179 186 199 202 207
302 295 290 288 284 286 287 285 285 281 282 278 273 271 265 267 257 262 264 269 274 269 264 246 234 229 226 225 218 212 206 205 204 203 205 206 211 213 212 212 211 212 207 204 202 204 206 208 211 212 212 212 209 203 203 197 199 200 201 197 189 179 171 179 185 179 182 186 187 185 186 187 184 185 177 174 173 184 189 186 191 190 194 194 192
307 303 303 299 292 285 285 285 282 279 280 277 273 266 266 265 261 260 260 260 262 267 272 252 231 227 226 225 218 215 211 203 203 203 198 198 200 198 197 203 206 213 210 204 203 207 206 209 205 208 205 211 201 204 202 199 198 199 199 192 188 180 176 179 184 186 187 188 193 190 187 187 184 184 183 187 186 190 189 189 188 189 190 190 188
304 301 300 299 295 291 288 286 282 279 277 275 272 270 264 259 257 258 257 258 258 260 259 265 244 251 237 232 221 217 214 205 206 204 201 199 199 199 199 191 195 203 210 206 202 202 203 205 201 201 198 195 186 183 178 191 189 188 187 185 180 177 183 180 182 181 182 189 190 189 188 189 184 186 183 190 191 190 189 185 183 183 188 192 187
288 288 294 297 296 290 286 281 282 280 275 269 267 264 264 260 255 251 252 253 254 256 258 255 237 233 228 231 198 205 209 204 203 209 208 206 206 205 201 198 197 197 204 205 200 197 203 202 192 194 186 170 168 162 168 171 166 165 166 169 172 182 181 182 188 185 188 186 189 192 192 191 187 187 186 192 190 188 190 184 179 184 189 195 195
292 287 286 288 288 287 284 283 281 282 277 273 268 264 261 261 257 253 250 251 254 251 252 249 242 237 234 208 193 195 186 201 199 204 197 196 202 202 193 189 192 194 198 202 193 190 193 192 179 172 161 166 165 166 170 172 167 176 173 170 176 177 185 178 184 183 188 196 196 192 191 194 188 189 186 190 197 192 188 180 184 183 186 194 200
298 299 298 296 291 286 285 280 281 278 277 277 272 266 262 257 255 254 252 251 250 250 247 244 243 239 229 201 199 189 200 207 204 199 194 192 197 199 191 187 187 187 190 190 187 172 166 157 164 164 164 162 164 163 169 166 172 176 174 185 183 190 195 188 189 188 195 192 192 190 192 195 190 186 190 199 199 190 186 184 185 187 195 199 202
301 299 299 298 294 292 285 281 275 273 278 275 272 267 261 259 257 254 252 250 249 250 245 244 243 238 220 216 208 198 203 202 196 192 191 188 188 190 190 188 184 183 182 181 171 157 151 150 157 164 159 159 159 158 165 168 168 173 182 188 188 194 191 194 191 192 188 185 189 188 190 191 189 188 198 199 197 191 188 182 184 190 198 201 199
303 301 298 296 296 291 287 284 279 276 272 272 271 265 264 260 257 251 250 248 248 246 247 244 240 229 215 206 201 201 205 211 202 189 179 172 176 183 171 163 169 172 168 164 156 152 143 142 150 155 157 156 155 159 158 172 176 180 184 188 195 191 189 191 189 186 182 184 184 186 187 188 192 196 196 185 182 184 189 193 194 196 198 202 201
299 296 294 293 293 288 285 284 286 285 276 272 268 268 262 261 260 255 249 247 245 242 241 239 233 205 204 210 210 210 203 190 175 172 149 144 136 134 137 142 151 148 148 141 142 147 149 148 150 157 160 164 165 166 172 176 175 179 180 187 190 189 189 184 180 183 182 181 183 185 181 189 192 190 192 192 190 193 205 204 205 204 203 202 201
297 294 290 285 283 282 279 278 279 277 276 273 274 272 269 264 259 253 252 246 241 236 232 234 209 192 195 208 207 208 172 159 153 152 143 142 136 129 116 107 107 102 105 117 131 137 144 150 151 136 124 135 152 165 171 174 171 178 182 183 190 187 189 186 187 184 183 184 182 181 187 192 195 196 200 199 198 201 208 204 206 208 205 206 197
288 287 286 286 284 282 281 276 272 275 276 276 272 271 264 259 255 252 245 241 235 224 219 201 172 180 189 199 197 199 169 156 145 137 140 134 118 106 112 108 108 107 97 83 78 114 129 134 129 129 125 95 76 73 80 61 111 174 185 186 189 190 193 188 189 181 180 183 176 172 174 179 190 193 195 194 197 199 201 200 201 200 201 203 196
283 282 284 283 284 283 282 282 283 282 282 280 277 274 268 257 251 247 237 232 213 198 184 173 172 179 186 193 190 172 137 130 125 119 111 104 105 99 94 95 92 96 93 98 80 84 96 116 133 131 123 105 89 75 68 68 73 58 49 64 109 122 93 89 100 119 142 157 162 166 168 174 181 187 188 186 191 195 203 201 197 201 204 203 204
287 269 274 278 288 288 287 285 284 283 283 280 275 273 264 255 248 239 234 209 192 177 171 168 167 171 174 164 147 123 117 117 111 98 92 85 94 99 95 94 99 93 84 81 79 87 82 79 83 102 102 102 98 85 75 64 53 53 42 53 77 86 79 80 73 90 93 95 104 110 128 140 153 147 166 167 171 187 195 202 196 201 204 197 194
298 303 302 302 299 297 296 296 291 287 285 282 283 282 282 295 279 275 216 140 131 119 121 98 89 82 85 64 70 88 90 89 84 83 79 71 78 80 90 88 89 86 72 52 39 57 73 77 77 85 88 82 81 66 66 54 28 53 57 58 44 53 79 80 77 69 75 92 101 118 139 151 156 162 166 177 187 180 188 207 178 195 186 188 179
309 310 312 312 311 309 312 311 314 315 315 327 328 328 338 337 354 4 12 36 70 78 84 91 75 80 83 69 82 83 81 84 86 80 80 76 70 79 82 87 70 52 54 57 46 44 37 46 55 62 63 59 63 67 69 60 69 60 78 67 92 94 87 82 80 79 77 79 85 89 93 107 131 140 144 155 172 172 180 180 180 187 183 184 180
326 326 326 323 323 324 326 328 333 335 340 343 345 352 352 3 7 15 21 40 50 49 50 55 73 88 79 78 81 75 79 78 74 80 78 76 75 72 73 71 62 60 62 67 59 50 50 45 48 51 50 50 53 57 55 69 71 78 69 110 106 98 95 92 94 94 91 95 99 109 116 121 122 138 149 160 166 167 177 191 192 181 184 183 193
336 337 335 339 337 333 334 343 348 354 356 358 356 6 5 6 7 11 26 36 45 58 68 70 63 54 51 55 67 77 78 83 80 71 75 77 73 66 64 69 72 58 57 54 51 51 47 49 51 46 54 54 49 45 51 59 70 123 119 108 106 108 106 104 101 110 111 110 113 120 131 143 146 149 162 167 166 174 195 182 176 174 188 186 186